| time (UTC) | temp F | wind direction | speed MPH | gust MPH | rain 1hr in | rain 24hr in | rain mn in | humidity % | barometer mb |
| 20260510160534 | 61 | 306 | 11.0 | 21.0 | 0.00 | 0.00 | 0.00 | 29 | 1019.2 |
| 20260510160033 | 61 | 284 | 12.0 | 21.0 | 0.00 | 0.00 | 0.00 | 34 | 1019.2 |
| 20260510155535 | 60 | 309 | 8.0 | 16.0 | 0.00 | 0.00 | 0.00 | 37 | 1019.3 |
| 20260510155018 | 60 | 330 | 6.0 | 19.0 | 0.00 | 0.00 | 0.00 | 34 | 1019.3 |
| 20260510154525 | 59 | 300 | 12.0 | 19.0 | 0.00 | 0.00 | 0.00 | 32 | 1019.3 |
| 20260510154033 | 59 | 330 | 11.0 | 26.0 | 0.00 | 0.00 | 0.00 | 33 | 1019.3 |
| 20260510153537 | 59 | 302 | 17.0 | 26.0 | 0.00 | 0.00 | 0.00 | 32 | 1019.1 |
| 20260510153018 | 59 | 322 | 11.0 | 19.0 | 0.00 | 0.00 | 0.00 | 34 | 1019.2 |
| 20260510152551 | 59 | 286 | 10.0 | 19.0 | 0.00 | 0.00 | 0.00 | 33 | 1019.2 |
| 20260510152027 | 59 | 313 | 11.0 | 21.0 | 0.00 | 0.00 | 0.00 | 34 | 1019.3 |
| 20260510151519 | 59 | 288 | 13.0 | 21.0 | 0.00 | 0.00 | 0.00 | 32 | 1019.2 |
| 20260510151036 | 59 | 294 | 10.0 | 20.0 | 0.00 | 0.00 | 0.00 | 33 | 1019.2 |
| 20260510150531 | 59 | 290 | 8.0 | 19.0 | 0.00 | 0.00 | 0.00 | 34 | 1019.0 |
| 20260510150056 | 59 | 289 | 12.0 | 19.0 | 0.00 | 0.00 | 0.00 | 32 | 1019.1 |
| 20260510145523 | 59 | 312 | 8.0 | 15.0 | 0.00 | 0.00 | 0.00 | 36 | 1019.1 |
| 20260510145037 | 59 | 311 | 9.0 | 15.0 | 0.00 | 0.00 | 0.00 | 35 | 1019.2 |
| 20260510144534 | 58 | 319 | 6.0 | 12.0 | 0.00 | 0.00 | 0.00 | 37 | 1019.1 |
| 20260510144035 | 58 | 306 | 6.0 | 11.0 | 0.00 | 0.00 | 0.00 | 37 | 1019.1 |
| 20260510143523 | 58 | 322 | 8.0 | 12.0 | 0.00 | 0.00 | 0.00 | 35 | 1019.1 |
| 20260510143024 | 58 | 292 | 5.0 | 11.0 | 0.00 | 0.00 | 0.00 | 40 | 1019.1 |
| 20260510142527 | 57 | 317 | 4.0 | 13.0 | 0.00 | 0.00 | 0.00 | 40 | 1019.1 |
| 20260510142055 | 57 | 307 | 6.0 | 9.0 | 0.00 | 0.00 | 0.00 | 40 | 1019.1 |
| 20260510141542 | 57 | 313 | 2.0 | 8.0 | 0.00 | 0.00 | 0.00 | 40 | 1019.2 |
| 20260510141036 | 57 | 236 | 3.0 | 9.0 | 0.00 | 0.00 | 0.00 | 46 | 1019.1 |
| 20260510140555 | 56 | 252 | 5.0 | 11.0 | 0.00 | 0.00 | 0.00 | 42 | 1019.0 |
| 20260510140022 | 56 | 220 | 8.0 | 12.0 | 0.00 | 0.00 | 0.00 | 45 | 1019.0 |
| 20260510135535 | 55 | 244 | 7.0 | 10.0 | 0.00 | 0.00 | 0.00 | 45 | 1019.0 |
| 20260510135026 | 55 | 208 | 3.0 | 8.0 | 0.00 | 0.00 | 0.00 | 48 | 1019.0 |
| 20260510134521 | 54 | 195 | 5.0 | 8.0 | 0.00 | 0.00 | 0.00 | 47 | 1019.0 |
| 20260510134028 | 54 | 221 | 5.0 | 9.0 | 0.00 | 0.00 | 0.00 | 48 | 1018.9 |
| 20260510133526 | 54 | 255 | 5.0 | 10.0 | 0.00 | 0.00 | 0.00 | 49 | 1019.0 |
| 20260510133034 | 53 | 234 | 7.0 | 10.0 | 0.00 | 0.00 | 0.00 | 49 | 1018.9 |
| 20260510132527 | 52 | 221 | 7.0 | 11.0 | 0.00 | 0.00 | 0.00 | 50 | 1018.9 |
| 20260510132019 | 52 | 213 | 6.0 | 14.0 | 0.00 | 0.00 | 0.00 | 51 | 1018.9 |
| 20260510131532 | 51 | 214 | 6.0 | 10.0 | 0.00 | 0.00 | 0.00 | 50 | 1018.8 |
| 20260510131030 | 51 | 207 | 7.0 | 10.0 | 0.00 | 0.00 | 0.00 | 50 | 1018.8 |
| 20260510130522 | 51 | 219 | 8.0 | 11.0 | 0.00 | 0.00 | 0.00 | 53 | 1018.7 |
| 20260510130023 | 51 | 219 | 6.0 | 10.0 | 0.00 | 0.00 | 0.00 | 56 | 1018.7 |
| 20260510125543 | 50 | 236 | 5.0 | 9.0 | 0.00 | 0.00 | 0.00 | 56 | 1018.6 |
| 20260510125021 | 49 | 239 | 5.0 | 8.0 | 0.00 | 0.00 | 0.00 | 60 | 1018.6 |
| 20260510124528 | 48 | 230 | 4.0 | 8.0 | 0.00 | 0.00 | 0.00 | 63 | 1018.6 |
| 20260510124045 | 47 | 237 | 4.0 | 7.0 | 0.00 | 0.00 | 0.00 | 69 | 1018.5 |
| 20260510123552 | 46 | 309 | 3.0 | 7.0 | 0.00 | 0.00 | 0.00 | 69 | 1018.4 |
| 20260510123034 | 45 | 227 | 3.0 | 5.0 | 0.00 | 0.00 | 0.00 | 70 | 1018.4 |
| 20260510122532 | 43 | 232 | 3.0 | 5.0 | 0.00 | 0.00 | 0.00 | 74 | 1018.4 |
| 20260510122020 | 42 | 198 | 3.0 | 4.0 | 0.00 | 0.00 | 0.00 | 79 | 1018.4 |
| 20260510121519 | 41 | 203 | 2.0 | 4.0 | 0.00 | 0.00 | 0.00 | 82 | 1018.4 |
| 20260510121031 | 40 | 310 | 1.0 | 2.0 | 0.00 | 0.00 | 0.00 | 83 | 1018.2 |
| 20260510120522 | 39 | 310 | 0.0 | 2.0 | 0.00 | 0.00 | 0.00 | 82 | 1018.2 |
| 20260510120028 | 38 | 310 | 1.0 | 2.0 | 0.00 | 0.00 | 0.00 | 83 | 1018.1 |
| 20260510115522 | 37 | 310 | 1.0 | 2.0 | 0.00 | 0.00 | 0.00 | 83 | 1018.0 |
| 20260510115038 | 37 | 310 | 1.0 | 3.0 | 0.00 | 0.00 | 0.00 | 82 | 1018.1 |
| 20260510114539 | 36 | 310 | 1.0 | 3.0 | 0.00 | 0.00 | 0.00 | 82 | 1018.0 |
| 20260510114036 | 36 | 310 | 2.0 | 3.0 | 0.00 | 0.00 | 0.00 | 81 | 1017.9 |
| 20260510113534 | 36 | 310 | 2.0 | 4.0 | 0.00 | 0.00 | 0.00 | 81 | 1018.0 |
| 20260510113049 | 35 | 310 | 2.0 | 4.0 | 0.00 | 0.00 | 0.00 | 81 | 1018.1 |
| 20260510112018 | 35 | 310 | 2.0 | 3.0 | 0.00 | 0.00 | 0.00 | 80 | 1018.1 |
| 20260510111517 | 35 | 310 | 2.0 | 3.0 | 0.00 | 0.00 | 0.00 | 79 | 1018.1 |
| 20260510111031 | 35 | 310 | 1.0 | 2.0 | 0.00 | 0.00 | 0.00 | 79 | 1017.9 |
| 20260510110523 | 35 | 310 | 0.0 | 0.0 | 0.00 | 0.00 | 0.00 | 78 | 1018.0 |
| 20260510110038 | 36 | 310 | 0.0 | 2.0 | 0.00 | 0.00 | 0.00 | 78 | 1017.8 |
| 20260510105542 | 36 | 310 | 1.0 | 3.0 | 0.00 | 0.00 | 0.00 | 78 | 1017.7 |
| 20260510105037 | 36 | 310 | 1.0 | 3.0 | 0.00 | 0.00 | 0.00 | 78 | 1017.7 |
| 20260510104606 | 36 | 310 | 1.0 | 4.0 | 0.00 | 0.00 | 0.00 | 78 | 1017.7 |
| 20260510104028 | 36 | 310 | 2.0 | 4.0 | 0.00 | 0.00 | 0.00 | 78 | 1017.6 |
| 20260510103518 | 36 | 310 | 3.0 | 4.0 | 0.00 | 0.00 | 0.00 | 77 | 1017.5 |
| 20260510103022 | 36 | 310 | 1.0 | 2.0 | 0.00 | 0.00 | 0.00 | 76 | 1017.5 |
| 20260510102535 | 36 | 310 | 0.0 | 3.0 | 0.00 | 0.00 | 0.00 | 76 | 1017.4 |
| 20260510102053 | 36 | 310 | 1.0 | 3.0 | 0.00 | 0.00 | 0.00 | 76 | 1017.3 |
| 20260510101518 | 37 | 310 | 2.0 | 3.0 | 0.00 | 0.00 | 0.00 | 75 | 1017.4 |
| 20260510101031 | 37 | 310 | 1.0 | 2.0 | 0.00 | 0.00 | 0.00 | 75 | 1017.2 |
| 20260510100538 | 37 | 310 | 1.0 | 2.0 | 0.00 | 0.00 | 0.00 | 74 | 1017.2 |
| 20260510100029 | 37 | 310 | 0.0 | 1.0 | 0.00 | 0.00 | 0.00 | 74 | 1017.0 |
| 20260510095528 | 37 | 310 | 0.0 | 0.0 | 0.00 | 0.00 | 0.00 | 73 | 1017.0 |
| 20260510095028 | 37 | 310 | 0.0 | 2.0 | 0.00 | 0.00 | 0.00 | 73 | 1017.0 |
| 20260510094528 | 37 | 310 | 2.0 | 2.0 | 0.00 | 0.00 | 0.00 | 72 | 1016.8 |
| 20260510094027 | 37 | 310 | 2.0 | 2.0 | 0.00 | 0.00 | 0.00 | 71 | 1016.8 |
| 20260510093529 | 37 | 310 | 0.0 | 3.0 | 0.00 | 0.00 | 0.00 | 70 | 1016.7 |
| 20260510093045 | 37 | 310 | 2.0 | 3.0 | 0.00 | 0.00 | 0.00 | 70 | 1016.7 |
| 20260510092522 | 38 | 310 | 1.0 | 2.0 | 0.00 | 0.00 | 0.00 | 69 | 1016.7 |
| 20260510092058 | 38 | 310 | 0.0 | 2.0 | 0.00 | 0.00 | 0.00 | 69 | 1016.7 |
| 20260510091533 | 38 | 310 | 0.0 | 2.0 | 0.00 | 0.00 | 0.00 | 69 | 1016.7 |
| 20260510091024 | 38 | 310 | 0.0 | 2.0 | 0.00 | 0.00 | 0.00 | 69 | 1016.7 |
| 20260510090520 | 38 | 310 | 0.0 | 2.0 | 0.00 | 0.00 | 0.00 | 69 | 1016.7 |
| 20260510090038 | 38 | 310 | 2.0 | 2.0 | 0.00 | 0.00 | 0.00 | 68 | 1016.4 |
| 20260510085532 | 39 | 310 | 1.0 | 2.0 | 0.00 | 0.00 | 0.00 | 68 | 1016.3 |
| 20260510085036 | 39 | 310 | 0.0 | 2.0 | 0.00 | 0.00 | 0.00 | 67 | 1016.2 |
| 20260510084525 | 39 | 310 | 1.0 | 3.0 | 0.00 | 0.00 | 0.00 | 67 | 1016.1 |
| 20260510084019 | 39 | 310 | 2.0 | 3.0 | 0.00 | 0.00 | 0.00 | 66 | 1016.2 |
| 20260510083526 | 39 | 310 | 0.0 | 1.0 | 0.00 | 0.00 | 0.00 | 65 | 1016.1 |
| 20260510083023 | 40 | 310 | 0.0 | 2.0 | 0.00 | 0.00 | 0.00 | 65 | 1015.9 |
| 20260510082601 | 40 | 310 | 0.0 | 2.0 | 0.00 | 0.00 | 0.00 | 65 | 1015.8 |
| 20260510082038 | 40 | 310 | 1.0 | 2.0 | 0.00 | 0.00 | 0.00 | 65 | 1015.8 |
| 20260510081533 | 40 | 310 | 1.0 | 5.0 | 0.00 | 0.00 | 0.00 | 64 | 1015.7 |
| 20260510081046 | 41 | 310 | 3.0 | 5.0 | 0.00 | 0.00 | 0.00 | 64 | 1015.6 |
| 20260510080518 | 41 | 5 | 0.0 | 1.0 | 0.00 | 0.00 | 0.00 | 61 | 1015.5 |
| 20260510080044 | 41 | 5 | 0.0 | 1.0 | 0.00 | 0.00 | 0.00 | 60 | 1015.5 |
| 20260510075527 | 41 | 5 | 0.0 | 1.0 | 0.00 | 0.00 | 0.00 | 60 | 1015.4 |
| 20260510075037 | 42 | 5 | 0.0 | 2.0 | 0.00 | 0.00 | 0.00 | 60 | 1015.5 |
| 20260510074521 | 42 | 5 | 1.0 | 2.0 | 0.00 | 0.00 | 0.00 | 60 | 1015.3 |
| 20260510074109 | 42 | 5 | 0.0 | 3.0 | 0.00 | 0.00 | 0.00 | 60 | 1015.3 |
| 20260510073525 | 42 | 5 | 2.0 | 3.0 | 0.00 | 0.00 | 0.00 | 60 | 1015.2 |
| 20260510073022 | 43 | 5 | 1.0 | 2.0 | 0.00 | 0.00 | 0.00 | 58 | 1015.2 |
| 20260510072520 | 43 | 5 | 1.0 | 2.0 | 0.00 | 0.00 | 0.00 | 56 | 1015.0 |
| 20260510072030 | 43 | 5 | 0.0 | 1.0 | 0.00 | 0.00 | 0.00 | 55 | 1015.0 |
| 20260510071623 | 44 | 5 | 0.0 | 2.0 | 0.00 | 0.00 | 0.00 | 55 | 1015.0 |
| 20260510071125 | 44 | 5 | 0.0 | 2.0 | 0.00 | 0.00 | 0.00 | 54 | 1015.0 |
| 20260510070611 | 44 | 5 | 0.0 | 2.0 | 0.00 | 0.00 | 0.00 | 54 | 1014.8 |
| 20260510070055 | 45 | 5 | 1.0 | 2.0 | 0.00 | 0.00 | 0.00 | 53 | 1014.7 |
| 20260510065519 | 45 | 5 | 1.0 | 3.0 | 0.00 | 0.00 | 0.00 | 53 | 1014.7 |
| 20260510065048 | 45 | 5 | 1.0 | 2.0 | 0.00 | 0.00 | 0.00 | 53 | 1014.8 |
| 20260510064604 | 45 | 5 | 0.0 | 2.0 | 0.00 | 0.00 | 0.00 | 52 | 1014.7 |
| 20260510064101 | 46 | 5 | 0.0 | 2.0 | 0.00 | 0.00 | 0.00 | 52 | 1014.7 |
| 20260510063527 | 46 | 5 | 0.0 | 2.0 | 0.00 | 0.00 | 0.00 | 52 | 1014.6 |
| 20260510063044 | 46 | 5 | 0.0 | 2.0 | 0.00 | 0.00 | 0.00 | 52 | 1014.7 |
| 20260510062547 | 46 | 5 | 1.0 | 2.0 | 0.00 | 0.00 | 0.00 | 52 | 1014.6 |
| 20260510062034 | 46 | 5 | 1.0 | 3.0 | 0.00 | 0.00 | 0.00 | 52 | 1014.6 |
| 20260510061535 | 46 | 5 | 1.0 | 3.0 | 0.00 | 0.00 | 0.00 | 52 | 1014.6 |
| 20260510061051 | 46 | 5 | 2.0 | 4.0 | 0.00 | 0.00 | 0.00 | 52 | 1014.5 |
| 20260510060533 | 46 | 5 | 2.0 | 5.0 | 0.00 | 0.00 | 0.00 | 52 | 1014.4 |
| 20260510060022 | 46 | 46 | 1.0 | 6.0 | 0.00 | 0.00 | 0.00 | 52 | 1014.4 |
| 20260510055540 | 46 | 19 | 3.0 | 6.0 | 0.00 | 0.00 | 0.00 | 52 | 1014.4 |
| 20260510055037 | 46 | 19 | 3.0 | 6.0 | 0.00 | 0.00 | 0.00 | 53 | 1014.3 |
| 20260510054530 | 46 | 340 | 3.0 | 6.0 | 0.00 | 0.00 | 0.00 | 54 | 1014.3 |
| 20260510054019 | 46 | 360 | 3.0 | 5.0 | 0.00 | 0.00 | 0.00 | 54 | 1014.2 |
| 20260510053533 | 46 | 334 | 2.0 | 4.0 | 0.00 | 0.00 | 0.00 | 53 | 1014.2 |
| 20260510053036 | 46 | 313 | 2.0 | 4.0 | 0.00 | 0.00 | 0.00 | 52 | 1014.0 |
| 20260510052537 | 47 | 313 | 1.0 | 2.0 | 0.00 | 0.00 | 0.00 | 51 | 1013.9 |
| 20260510052054 | 47 | 313 | 1.0 | 2.0 | 0.00 | 0.00 | 0.00 | 50 | 1013.6 |
| 20260510051530 | 47 | 313 | 1.0 | 3.0 | 0.00 | 0.00 | 0.00 | 49 | 1013.5 |
| 20260510051054 | 47 | 313 | 2.0 | 3.0 | 0.00 | 0.00 | 0.00 | 49 | 1013.4 |
| 20260510050541 | 48 | 313 | 2.0 | 4.0 | 0.00 | 0.00 | 0.00 | 48 | 1013.3 |
| 20260510050037 | 48 | 313 | 2.0 | 4.0 | 0.00 | 0.00 | 0.00 | 49 | 1013.1 |
| 20260510045550 | 48 | 335 | 1.0 | 4.0 | 0.00 | 0.00 | 0.00 | 48 | 1013.0 |
| 20260510045023 | 48 | 335 | 1.0 | 3.0 | 0.00 | 0.00 | 0.00 | 47 | 1013.1 |
| 20260510044533 | 49 | 335 | 2.0 | 4.0 | 0.00 | 0.00 | 0.00 | 48 | 1013.0 |
| 20260510044028 | 49 | 335 | 2.0 | 4.0 | 0.00 | 0.00 | 0.00 | 48 | 1013.0 |
| 20260510043549 | 49 | 335 | 2.0 | 3.0 | 0.00 | 0.00 | 0.00 | 48 | 1012.9 |
| 20260510043033 | 49 | 335 | 2.0 | 3.0 | 0.00 | 0.00 | 0.00 | 48 | 1012.9 |
| 20260510042519 | 49 | 308 | 2.0 | 5.0 | 0.00 | 0.00 | 0.00 | 47 | 1012.9 |
| 20260510042039 | 49 | 323 | 3.0 | 6.0 | 0.00 | 0.00 | 0.00 | 47 | 1012.8 |
| 20260510041541 | 50 | 317 | 3.0 | 6.0 | 0.00 | 0.00 | 0.00 | 47 | 1012.8 |
| 20260510041023 | 50 | 316 | 2.0 | 4.0 | 0.00 | 0.00 | 0.00 | 48 | 1012.8 |
| 20260510040531 | 50 | 329 | 2.0 | 4.0 | 0.00 | 0.00 | 0.00 | 48 | 1012.8 |
| 20260510040039 | 50 | 316 | 3.0 | 5.0 | 0.00 | 0.00 | 0.00 | 47 | 1012.7 |
| 20260510035541 | 50 | 317 | 3.0 | 8.0 | 0.00 | 0.00 | 0.00 | 47 | 1012.6 |
| 20260510035033 | 50 | 313 | 4.0 | 8.0 | 0.00 | 0.00 | 0.00 | 47 | 1012.6 |
| 20260510034522 | 50 | 306 | 3.0 | 5.0 | 0.00 | 0.00 | 0.00 | 47 | 1012.6 |
| 20260510034025 | 50 | 307 | 3.0 | 5.0 | 0.00 | 0.00 | 0.00 | 46 | 1012.6 |
| 20260510033530 | 51 | 304 | 3.0 | 5.0 | 0.00 | 0.00 | 0.00 | 46 | 1012.4 |
| 20260510033033 | 51 | 300 | 3.0 | 6.0 | 0.00 | 0.00 | 0.00 | 46 | 1012.5 |
| 20260510032529 | 51 | 300 | 4.0 | 6.0 | 0.00 | 0.00 | 0.00 | 45 | 1012.3 |
| 20260510032023 | 51 | 308 | 3.0 | 6.0 | 0.00 | 0.00 | 0.00 | 45 | 1012.2 |
| 20260510031556 | 52 | 311 | 3.0 | 6.0 | 0.00 | 0.00 | 0.00 | 44 | 1012.2 |
| 20260510031037 | 52 | 324 | 3.0 | 5.0 | 0.00 | 0.00 | 0.00 | 44 | 1012.1 |
| 20260510030539 | 52 | 286 | 3.0 | 5.0 | 0.00 | 0.00 | 0.00 | 43 | 1012.0 |
| 20260510030031 | 53 | 315 | 3.0 | 4.0 | 0.00 | 0.00 | 0.00 | 42 | 1011.9 |
| 20260510025519 | 53 | 314 | 2.0 | 4.0 | 0.00 | 0.00 | 0.00 | 42 | 1011.8 |
| 20260510025018 | 54 | 308 | 2.0 | 4.0 | 0.00 | 0.00 | 0.00 | 42 | 1011.7 |
| 20260510024118 | 54 | 308 | 2.0 | 5.0 | 0.00 | 0.00 | 0.00 | 41 | 1011.6 |
| 20260510023556 | 55 | 316 | 2.0 | 4.0 | 0.00 | 0.00 | 0.00 | 41 | 1011.4 |
| 20260510023034 | 55 | 316 | 2.0 | 5.0 | 0.00 | 0.00 | 0.00 | 40 | 1011.3 |
| 20260510022044 | 55 | 320 | 2.0 | 4.0 | 0.00 | 0.00 | 0.00 | 40 | 1011.1 |
| 20260510021540 | 56 | 308 | 3.0 | 8.0 | 0.00 | 0.00 | 0.00 | 39 | 1011.1 |
| 20260510021048 | 56 | 323 | 4.0 | 11.0 | 0.00 | 0.00 | 0.00 | 38 | 1010.9 |
| 20260510020523 | 56 | 304 | 5.0 | 11.0 | 0.00 | 0.00 | 0.00 | 38 | 1010.8 |
| 20260510020027 | 57 | 326 | 3.0 | 8.0 | 0.00 | 0.00 | 0.00 | 39 | 1010.8 |
| 20260510015532 | 57 | 316 | 2.0 | 8.0 | 0.00 | 0.00 | 0.00 | 39 | 1010.5 |
| 20260510015029 | 57 | 342 | 3.0 | 8.0 | 0.00 | 0.00 | 0.00 | 38 | 1010.4 |
| 20260510014526 | 57 | 322 | 3.0 | 5.0 | 0.00 | 0.00 | 0.00 | 38 | 1010.3 |
| 20260510014021 | 58 | 327 | 4.0 | 8.0 | 0.00 | 0.00 | 0.00 | 38 | 1010.2 |
| 20260510013535 | 58 | 309 | 4.0 | 10.0 | 0.00 | 0.00 | 0.00 | 37 | 1010.1 |
| 20260510013049 | 58 | 312 | 5.0 | 11.0 | 0.00 | 0.00 | 0.00 | 37 | 1009.9 |
| 20260510012521 | 58 | 303 | 5.0 | 11.0 | 0.00 | 0.00 | 0.00 | 37 | 1009.9 |
| 20260510012041 | 59 | 319 | 8.0 | 11.0 | 0.00 | 0.00 | 0.00 | 36 | 1009.8 |
| 20260510011557 | 59 | 330 | 6.0 | 13.0 | 0.00 | 0.00 | 0.00 | 37 | 1009.7 |
| 20260510011031 | 59 | 309 | 7.0 | 13.0 | 0.00 | 0.00 | 0.00 | 37 | 1009.5 |
| 20260510010058 | 60 | 329 | 6.0 | 13.0 | 0.00 | 0.00 | 0.00 | 37 | 1009.4 |
| 20260510005558 | 60 | 301 | 8.0 | 13.0 | 0.00 | 0.00 | 0.00 | 36 | 1009.3 |
| 20260510005039 | 60 | 340 | 5.0 | 11.0 | 0.00 | 0.00 | 0.00 | 36 | 1009.3 |
| 20260510004521 | 60 | 324 | 6.0 | 15.0 | 0.00 | 0.00 | 0.00 | 36 | 1009.1 |
| 20260510004032 | 60 | 314 | 10.0 | 15.0 | 0.00 | 0.00 | 0.00 | 36 | 1009.0 |
| 20260510003029 | 61 | 302 | 7.0 | 12.0 | 0.00 | 0.00 | 0.00 | 37 | 1008.8 |
| 20260510002537 | 61 | 318 | 7.0 | 13.0 | 0.00 | 0.00 | 0.00 | 37 | 1008.7 |
| 20260510002025 | 61 | 300 | 10.0 | 15.0 | 0.00 | 0.00 | 0.00 | 36 | 1008.5 |
| 20260510001538 | 61 | 318 | 9.0 | 15.0 | 0.00 | 0.00 | 0.00 | 37 | 1008.5 |
| 20260510001028 | 62 | 302 | 9.0 | 19.0 | 0.00 | 0.00 | 0.00 | 37 | 1008.4 |
| 20260510000536 | 62 | 302 | 10.0 | 15.0 | 0.00 | 0.00 | 0.00 | 38 | 1008.4 |
| 20260510000032 | 62 | 317 | 10.0 | 17.0 | 0.00 | 0.00 | 0.00 | 37 | 1008.3 |
| 20260509235527 | 63 | 301 | 11.0 | 17.0 | 0.00 | 0.00 | 0.00 | 37 | 1008.3 |
| 20260509235021 | 63 | 327 | 7.0 | 17.0 | 0.00 | 0.00 | 0.00 | 38 | 1008.2 |
| 20260509234536 | 63 | 304 | 11.0 | 16.0 | 0.00 | 0.00 | 0.00 | 37 | 1008.1 |
| 20260509234019 | 63 | 300 | 10.0 | 18.0 | 0.00 | 0.00 | 0.00 | 38 | 1008.0 |
| 20260509233532 | 64 | 327 | 13.0 | 18.0 | 0.00 | 0.00 | 0.00 | 37 | 1008.0 |
| 20260509233028 | 64 | 279 | 10.0 | 24.0 | 0.00 | 0.00 | 0.00 | 38 | 1008.0 |
| 20260509232521 | 64 | 304 | 13.0 | 24.0 | 0.00 | 0.00 | 0.00 | 37 | 1007.9 |
| 20260509232034 | 64 | 312 | 11.0 | 17.0 | 0.00 | 0.00 | 0.00 | 38 | 1007.9 |
| 20260509231534 | 64 | 314 | 11.0 | 18.0 | 0.00 | 0.00 | 0.00 | 38 | 1007.8 |
| 20260509230533 | 64 | 316 | 9.0 | 18.0 | 0.00 | 0.00 | 0.00 | 37 | 1007.6 |
| 20260509230047 | 65 | 313 | 11.0 | 20.0 | 0.00 | 0.00 | 0.00 | 36 | 1007.5 |
| 20260509225520 | 66 | 297 | 13.0 | 20.0 | 0.00 | 0.00 | 0.00 | 37 | 1007.3 |
| 20260509225019 | 66 | 341 | 11.0 | 19.0 | 0.00 | 0.00 | 0.00 | 37 | 1007.4 |
| 20260509224548 | 66 | 313 | 12.0 | 21.0 | 0.00 | 0.00 | 0.00 | 36 | 1007.4 |
| 20260509224032 | 65 | 327 | 15.0 | 21.0 | 0.00 | 0.00 | 0.00 | 37 | 1007.2 |
| 20260509223537 | 65 | 308 | 10.0 | 17.0 | 0.00 | 0.00 | 0.00 | 38 | 1007.2 |
| 20260509223035 | 65 | 306 | 9.0 | 20.0 | 0.00 | 0.00 | 0.00 | 37 | 1007.1 |
| 20260509222525 | 66 | 319 | 11.0 | 20.0 | 0.00 | 0.00 | 0.00 | 36 | 1007.0 |
| 20260509222019 | 66 | 331 | 12.0 | 18.0 | 0.00 | 0.00 | 0.00 | 36 | 1006.9 |
| 20260509221533 | 66 | 312 | 12.0 | 19.0 | 0.00 | 0.00 | 0.00 | 37 | 1006.8 |
| 20260509221031 | 66 | 286 | 13.0 | 21.0 | 0.00 | 0.00 | 0.00 | 37 | 1006.9 |
| 20260509220521 | 66 | 288 | 14.0 | 21.0 | 0.00 | 0.00 | 0.00 | 37 | 1006.8 |
| 20260509220021 | 67 | 329 | 13.0 | 21.0 | 0.00 | 0.00 | 0.00 | 35 | 1006.7 |
| 20260509215553 | 67 | 284 | 16.0 | 23.0 | 0.00 | 0.00 | 0.00 | 36 | 1006.6 |
| 20260509215019 | 67 | 298 | 13.0 | 23.0 | 0.00 | 0.00 | 0.00 | 37 | 1006.6 |
| 20260509214535 | 67 | 306 | 13.0 | 22.0 | 0.00 | 0.00 | 0.00 | 36 | 1006.6 |
| 20260509214027 | 67 | 308 | 12.0 | 18.0 | 0.00 | 0.00 | 0.00 | 37 | 1006.5 |
| 20260509213521 | 67 | 304 | 10.0 | 24.0 | 0.00 | 0.00 | 0.00 | 37 | 1006.4 |
| 20260509213017 | 68 | 302 | 15.0 | 24.0 | 0.00 | 0.00 | 0.00 | 36 | 1006.3 |
| 20260509212518 | 68 | 304 | 9.0 | 19.0 | 0.00 | 0.00 | 0.00 | 36 | 1006.2 |
| 20260509212056 | 68 | 326 | 14.0 | 24.0 | 0.00 | 0.00 | 0.00 | 36 | 1006.2 |
| 20260509211532 | 68 | 304 | 13.0 | 25.0 | 0.00 | 0.00 | 0.00 | 36 | 1006.1 |
| 20260509211041 | 68 | 315 | 9.0 | 20.0 | 0.00 | 0.00 | 0.00 | 37 | 1006.0 |
| 20260509210524 | 68 | 306 | 13.0 | 22.0 | 0.00 | 0.00 | 0.00 | 36 | 1006.0 |
| 20260509210027 | 68 | 298 | 9.0 | 21.0 | 0.00 | 0.00 | 0.00 | 36 | 1005.9 |
| 20260509205524 | 69 | 318 | 11.0 | 24.0 | 0.00 | 0.00 | 0.00 | 36 | 1005.9 |
| 20260509205039 | 69 | 304 | 16.0 | 24.0 | 0.00 | 0.00 | 0.00 | 35 | 1005.8 |
| 20260509204519 | 69 | 295 | 13.0 | 20.0 | 0.00 | 0.00 | 0.00 | 36 | 1005.7 |
| 20260509204034 | 69 | 310 | 13.0 | 20.0 | 0.00 | 0.00 | 0.00 | 36 | 1005.7 |
| 20260509203517 | 69 | 327 | 11.0 | 25.0 | 0.00 | 0.00 | 0.00 | 36 | 1005.7 |
| 20260509203020 | 69 | 330 | 12.0 | 25.0 | 0.00 | 0.00 | 0.00 | 34 | 1005.6 |
| 20260509202553 | 69 | 302 | 18.0 | 25.0 | 0.00 | 0.00 | 0.00 | 33 | 1005.6 |
| 20260509202017 | 69 | 300 | 13.0 | 26.0 | 0.00 | 0.00 | 0.00 | 34 | 1005.7 |
| 20260509201534 | 69 | 315 | 17.0 | 26.0 | 0.00 | 0.00 | 0.00 | 35 | 1005.7 |
| 20260509201026 | 69 | 311 | 11.0 | 20.0 | 0.00 | 0.00 | 0.00 | 34 | 1005.5 |
| 20260509200522 | 69 | 290 | 9.0 | 26.0 | 0.00 | 0.00 | 0.00 | 35 | 1005.5 |
| 20260509200035 | 69 | 310 | 20.0 | 26.0 | 0.00 | 0.00 | 0.00 | 34 | 1005.5 |
| 20260509195525 | 69 | 311 | 15.0 | 24.0 | 0.00 | 0.00 | 0.00 | 35 | 1005.4 |
| 20260509195019 | 69 | 333 | 16.0 | 24.0 | 0.00 | 0.00 | 0.00 | 36 | 1005.3 |
| 20260509194523 | 69 | 305 | 13.0 | 21.0 | 0.00 | 0.00 | 0.00 | 37 | 1005.2 |
| 20260509194018 | 69 | 281 | 15.0 | 24.0 | 0.00 | 0.00 | 0.00 | 35 | 1005.0 |
| 20260509193526 | 69 | 321 | 17.0 | 27.0 | 0.00 | 0.00 | 0.00 | 35 | 1005.0 |
| 20260509193057 | 69 | 321 | 16.0 | 27.0 | 0.00 | 0.00 | 0.00 | 36 | 1005.1 |
| 20260509192528 | 69 | 292 | 14.0 | 25.0 | 0.00 | 0.00 | 0.00 | 39 | 1005.0 |
| 20260509192022 | 69 | 302 | 16.0 | 25.0 | 0.00 | 0.00 | 0.00 | 36 | 1005.0 |
| 20260509191521 | 69 | 302 | 16.0 | 28.0 | 0.00 | 0.00 | 0.00 | 37 | 1004.8 |
| 20260509191034 | 69 | 248 | 12.0 | 28.0 | 0.00 | 0.00 | 0.00 | 36 | 1004.7 |
| 20260509190547 | 70 | 308 | 16.0 | 27.0 | 0.00 | 0.00 | 0.00 | 35 | 1004.7 |
| 20260509190024 | 70 | 294 | 18.0 | 25.0 | 0.00 | 0.00 | 0.00 | 35 | 1004.7 |
| 20260509185536 | 70 | 304 | 14.0 | 25.0 | 0.00 | 0.00 | 0.00 | 38 | 1004.6 |
| 20260509185054 | 69 | 268 | 14.0 | 26.0 | 0.00 | 0.00 | 0.00 | 37 | 1004.5 |
| 20260509184125 | 69 | 304 | 16.0 | 27.0 | 0.00 | 0.00 | 0.00 | 35 | 1004.4 |
| 20260509182525 | 69 | 304 | 14.0 | 24.0 | 0.00 | 0.00 | 0.00 | 36 | 1004.1 |
| 20260509182050 | 69 | 313 | 18.0 | 28.0 | 0.00 | 0.00 | 0.00 | 35 | 1004.2 |
| 20260509181533 | 70 | 275 | 18.0 | 28.0 | 0.00 | 0.00 | 0.00 | 36 | 1004.1 |
| 20260509181037 | 70 | 277 | 14.0 | 26.0 | 0.00 | 0.00 | 0.00 | 38 | 1004.0 |
| 20260509180522 | 71 | 317 | 15.0 | 26.0 | 0.00 | 0.00 | 0.00 | 39 | 1004.0 |
| 20260509180027 | 70 | 309 | 11.0 | 24.0 | 0.00 | 0.00 | 0.00 | 41 | 1004.0 |
| 20260509175603 | 69 | 302 | 17.0 | 24.0 | 0.00 | 0.00 | 0.00 | 41 | 1004.0 |
| 20260509175105 | 68 | 320 | 12.0 | 22.0 | 0.00 | 0.00 | 0.00 | 40 | 1004.0 |
| 20260509174531 | 69 | 313 | 17.0 | 22.0 | 0.00 | 0.00 | 0.00 | 39 | 1004.0 |
| 20260509174056 | 69 | 280 | 11.0 | 19.0 | 0.00 | 0.00 | 0.00 | 40 | 1004.0 |
| 20260509173538 | 69 | 300 | 14.0 | 23.0 | 0.00 | 0.00 | 0.00 | 40 | 1004.1 |
| 20260509173032 | 68 | 275 | 14.0 | 24.0 | 0.00 | 0.00 | 0.00 | 40 | 1004.1 |
| 20260509172527 | 68 | 298 | 16.0 | 28.0 | 0.00 | 0.00 | 0.00 | 40 | 1004.0 |
| 20260509172031 | 68 | 290 | 16.0 | 25.0 | 0.00 | 0.00 | 0.00 | 38 | 1003.9 |
| 20260509171534 | 69 | 269 | 12.0 | 21.0 | 0.00 | 0.00 | 0.00 | 38 | 1003.9 |
| 20260509171035 | 69 | 291 | 10.0 | 23.0 | 0.00 | 0.00 | 0.00 | 37 | 1003.8 |
| 20260509170527 | 69 | 272 | 14.0 | 23.0 | 0.00 | 0.00 | 0.00 | 37 | 1003.8 |
| 20260509170018 | 69 | 266 | 14.0 | 28.0 | 0.00 | 0.00 | 0.00 | 38 | 1003.9 |
| 20260509165532 | 69 | 249 | 13.0 | 28.0 | 0.00 | 0.00 | 0.00 | 38 | 1003.9 |
| 20260509165033 | 69 | 309 | 15.0 | 25.0 | 0.00 | 0.00 | 0.00 | 35 | 1004.0 |
| 20260509164528 | 68 | 285 | 14.0 | 24.0 | 0.00 | 0.00 | 0.00 | 37 | 1003.8 |
| 20260509164018 | 68 | 242 | 17.0 | 26.0 | 0.00 | 0.00 | 0.00 | 36 | 1004.0 |
| 20260509163554 | 68 | 344 | 9.0 | 26.0 | 0.00 | 0.00 | 0.00 | 38 | 1003.9 |
| 20260509163033 | 68 | 254 | 17.0 | 24.0 | 0.00 | 0.00 | 0.00 | 37 | 1004.0 |
| 20260509162516 | 68 | 259 | 16.0 | 25.0 | 0.00 | 0.00 | 0.00 | 37 | 1003.8 |
| 20260509162033 | 68 | 310 | 12.0 | 24.0 | 0.00 | 0.00 | 0.00 | 36 | 1003.9 |
| 20260509161550 | 67 | 306 | 12.0 | 19.0 | 0.00 | 0.00 | 0.00 | 40 | 1003.9 |
| 20260509161017 | 66 | 280 | 11.0 | 20.0 | 0.00 | 0.00 | 0.00 | 40 | 1003.9 |